This is the latest recevied weather packets stored in our database for station/object DL1MMS-10. If no packets are shown the sender has not sent any weather packets the latest 10 day(s).
| Time | Temp. | Humidity | Pressure | Rain* | Wind** | Luminosity | Snow |
|---|---|---|---|---|---|---|---|
| 1777574789 | 10° C | 28% | 1024.6 hPa | 0 mm | - | - | - |
| 1777574489 | 10° C | 27% | 1024.9 hPa | 0 mm | - | - | - |
| 1777574189 | 10.56° C | 27% | 1024.8 hPa | 0 mm | - | - | - |
| 1777573889 | 10.56° C | 27% | 1024.8 hPa | 0 mm | - | - | - |
| 1777573588 | 11.11° C | 27% | 1024.6 hPa | 0 mm | - | - | - |
| 1777573288 | 11.11° C | 26% | 1024.7 hPa | 0 mm | - | - | - |
| 1777572988 | 11.67° C | 26% | 1024.5 hPa | 0 mm | - | - | - |
| 1777572687 | 11.67° C | 26% | 1024.5 hPa | 0 mm | - | - | - |
| 1777572387 | 11.67° C | 26% | 1024.4 hPa | 0 mm | - | - | - |
| 1777572087 | 12.22° C | 25% | 1024.6 hPa | 0 mm | - | - | - |
| 1777571787 | 12.78° C | 25% | 1024.6 hPa | 0 mm | - | - | - |
| 1777571486 | 12.78° C | 25% | 1024.6 hPa | 0 mm | - | - | - |
| 1777571186 | 13.33° C | 24% | 1024.6 hPa | 0 mm | - | - | - |
| 1777570886 | 13.33° C | 24% | 1024.5 hPa | 0 mm | - | - | - |
| 1777570585 | 13.89° C | 23% | 1024.4 hPa | 0 mm | - | - | - |
| 1777570285 | 13.89° C | 23% | 1024.4 hPa | 0 mm | - | - | - |
| 1777569985 | 14.44° C | 22% | 1024.4 hPa | 0 mm | - | - | - |
| 1777569685 | 15° C | 22% | 1024.4 hPa | 0 mm | - | - | - |
| 1777569384 | 15° C | 22% | 1024.4 hPa | 0 mm | - | - | - |
| 1777569084 | 15.56° C | 22% | 1024.3 hPa | 0 mm | - | - | - |
| 1777568784 | 16.11° C | 21% | 1024.3 hPa | 0 mm | - | - | - |
| 1777568483 | 16.67° C | 20% | 1024.3 hPa | 0 mm | - | - | - |
| 1777568183 | 17.22° C | 19% | 1024.3 hPa | 0 mm | - | - | - |
| 1777567883 | 18.33° C | 19% | 1024.4 hPa | 0 mm | - | - | - |
| 1777567583 | 19.44° C | 18% | 1024.4 hPa | 0 mm | - | - | - |
* Rain latest hour (hover to see other rain measurements)
** Current wind speed in m/s (hover to see current wind gust speed)